Regional Weather Roundup
Issued by NWS Sterling, VA

Home | Current Version | Previous Version | Graphics & Text | Print | Product List | Glossary On
Versions: 1 2 3 4 5 6 7 8 9 10 11 12 13 14 15 16 17 18 19 20 21 22 23 24 25 26 27 28 29 30 31 32 33 34 35 36 37 38 39 40 41 42 43 44 45 46 47 48 49 50
424
ASUS41 KLWX 231711
RWRLWX

REGIONAL WEATHER ROUNDUP
NATIONAL WEATHER SERVICE BALTIMORE MD/WASHINGTON DC
1200 PM EST MON JAN 23 2017

Note: "FAIR" indicates few or no clouds below 12,000 feet
with no significant weather and/or obstructions to visibility.
 TC=TEMPERATURE CELSIUS

 * =Non NWS site. Station does not report precipitation (e.g. rain,
    snow, etc.), thunder, or fog.

DCZ001-MDZ009-015-VAZ040>042-051-053>054-231800-
WASHINGTON METRO

CITY           SKY/WX    TMP DP  RH WIND       PRES   REMARKS
WASHINGTON NAT LGT RAIN  44  41  89 NE32G47   29.42F FOG
DULLES         LGT RAIN  42  38  85 NE21G39   29.44S FOG
ANDREWS AFB    MIX PCPN  43  41  93 NE25G33   29.40S FOG
FT BELVOIR     LGT RAIN  44  40  89 E12G25    29.41F FOG
QUANTICO       RAIN      45  43  93 NE25G38   29.39F FOG
COLLEGE PARK*  CLOUDY    41  37  87 NE15G33   29.45F
LEESBURG*      LGT RAIN  43  43 100 NE15G26   29.48F
GAITHERSBURG*  CLOUDY    39  36  87 E14G24    29.49F

$$

MDZ006>007-011-014-231800-
BALTIMORE METRO

CITY           SKY/WX    TMP DP  RH WIND       PRES   REMARKS
BWI AIRPORT    LGT RAIN  41  40  96 NE26G37   29.48F FOG
MD SCIENCE CTR   N/A     42  37  82 MISG      29.51F
MARTIN STATE   RAIN      43  41  93 NE21G35   29.53F FOG
ANNAPOLIS      LGT RAIN  44  40  85 NE15G25   29.47F FOG
FORT MEADE*    PTSUNNY   39  37  93 NE20G31   29.49F

$$

MDZ012-015-019>023-231800-
MARYLAND EASTERN SHORE

CITY           SKY/WX    TMP DP  RH WIND       PRES   REMARKS
OCEAN CITY     HVY RAIN  49  48  97 E26G44    29.33F FOG
SALISBURY      HVY RAIN  48  47  96 NE30G43   29.35F FOG
BAY BRIDGE AP* LGT RAIN  43  41  93 NE20G31   29.46F FOG
CAMBRIDGE*     CLOUDY    43  43 100 NE24G41   29.35F
EASTON*        RAIN      45  41  87 E31G47    29.47F VSB 1

$$

MDZ017>025-231800-
SOUTHERN MARYLAND

CITY           SKY/WX    TMP DP  RH WIND       PRES   REMARKS
PATUXENT RIVER LGT RAIN  46  45  96 NE24G31   29.35F FOG
ST INIGOES     LGT RAIN  48  46  93 NE20G37   29.32F FOG
LEONARDTOWN*   CLOUDY    45  43  93 NE9G22    29.37F

$$

MDZ003>005-231800-
NORTH CENTRAL MARYLAND

CITY           SKY/WX    TMP DP  RH WIND       PRES   REMARKS
FREDERICK*     RAIN      39  39 100 NE18G31   29.53F
HAGERSTOWN APT LGT RAIN  41  35  79 NE17G30   29.52F
WESTMINSTER*   RAIN      37  36  93 E20G33    29.51F WCI  27

$$

MDZ501>502-231800-
WESTERN MARYLAND

CITY           SKY/WX    TMP DP  RH WIND       PRES   REMARKS
OAKLAND*         N/A     32  32 100 E14G36    29.44R FOG     WCI  22
CUMBERLAND*    CLOUDY    41  37  87 NE10      29.57F

$$

VAZ025>031-231800-
SHENANDOAH VALLEY

CITY           SKY/WX    TMP DP  RH WIND       PRES   REMARKS
WINCHESTER*    HVY RAIN  37  37 100 NE10G17   29.51R
FRONT ROYAL*   CLOUDY    41  41 100 NE6G21    29.49R
LURAY*         RAIN      41  41 100 N14         N/A
NEW MARKET*    CLOUDY    41  39  93 N17G23    29.44R
STAUNTON*      RAIN      42  40  96 N7        29.45R
WAYNESBORO*    CLOUDY    42  41  97 N9        29.41S

$$

WVZ021-048>050-054>055-231800-
EASTERN WEST VIRGINIA PANHANDLE

CITY           SKY/WX    TMP DP  RH WIND       PRES   REMARKS
MARTINSBURG    RAIN      40  37  89 N15G24    29.51F FOG
PETERSBURG*    RAIN      43  40  91 N6        29.50S

$$

VAZ036>039-050-231800-
CENTRAL FOOTHILLS

CITY           SKY/WX    TMP DP  RH WIND       PRES   REMARKS
CHARLOTTESVILL RAIN      46  43  89 N14       29.41R FOG
CULPEPER*      HVY RAIN  45  43  95 N12       29.45S
ORANGE*        RAIN      45  45 100 N14G23    29.40F
GORDONSVILLE*  CLOUDY    45  44  97 NE13G25   29.38S FOG
WARRENTON*     HVY RAIN  45  41  86 NE9G21    29.44R

$$

VAZ055>057-231800-
NORTH AND CENTRAL PIEDMONT

CITY           SKY/WX    TMP DP  RH WIND       PRES   REMARKS
FREDERICKSBRG* HVY RAIN  46  46 100 NE12G22   29.42R VSB 3/4
STAFFORD*      LGT RAIN  44  44 100 E9G22     29.45R

$$

NCZ024-NYZ072-PAZ021-071-VAZ022-071-231800-
OTHER REGIONAL OBSERVATIONS

CITY           SKY/WX    TMP DP  RH WIND       PRES   REMARKS
NEW YORK CITY  CLOUDY    40  31  70 E20G35    29.81F
PHILADELPHIA   LGT RAIN  40  36  86 E28G45    29.62F WCI  29
PITTSBURGH     LGT RAIN  44  41  89 E16       29.53F
ROANOKE        LGT RAIN  48  44  86 NE12G24   29.34R
RICHMOND       LGT RAIN  52  51  97 NE21G29   29.28F FOG
RALEIGH        PTSUNNY   58  49  72 W8        29.29F

$$

ANZ530>537-231800-
MARINE OBSERVATIONS

STATION/POSITION TIME  TEMP    WIND        PRES
                       AIR SEA DIR/SP/G
                 (UTC) (F)     (DEG/KT/KT) (MB)
THOMAS PT LIGHT  1700   43 40   60/ 28/ 36   N/A
BALT KEY BRIDGE  1642   41      50/ 20/ 27  999.0S
COVE POINT       1642   45      80/ 28/ 40  994.7F
LEWISETTA        1642   46 44   80/ 14/ 19  993.2R
SOLOMONS ISLAND  1648      42   50/ 17/ 26   N/A
PINEY POINT      1648           70/ 21/ 31   N/A

$$





USA.gov is the U.S. government's official web portal to all federal, state and local government web resources and services.